Corpus Christi, TX

4:59 AM CDT on September 21, 2017 (GMT -0500)
Corpus Christi International

Weather History for KCRP - September, 2013

Change the Weather History Date:

Saturday, September 7, 2013

  Actual Average Record
Temperature  
Mean Temperature 86 °F 83 °F  
Max Temperature 93 °F 92 °F 100 °F (2012)
Min Temperature 78 °F 74 °F 64 °F (1974)
Degree Days  
Heating Degree Days 0 0  
Month to date heating degree days 0 0  
Since 1 July heating degree days 0 0  
Cooling Degree Days 21 18  
Month to date cooling degree days 151 128  
Year to date cooling degree days 3164 2689  
Growing Degree Days 36 (Base 50)    
Moisture  
Dew Point 74 °F    
Average Humidity 72    
Maximum Humidity 91    
Minimum Humidity 52    
Precipitation  
Precipitation 0.11 in 0.18 in 2.67 in (1983)
Month to date precipitation 0.52 1.24  
Year to date precipitation 11.53 20.58  
Snow  
Snow 0.00 in - - ()
Month to date snowfall 0.0  
Since 1 July snowfall 0.0  
Since 1 September snowfall 0.0  
Snow Depth 0.00 in    
Sea Level Pressure  
Sea Level Pressure 29.95 in    
Wind  
Wind Speed 7 mph (ENE)    
Max Wind Speed 16 mph    
Max Gust Speed 20 mph    
Visibility 10 miles    
Events Rain , Thunderstorm    
T = Trace of Precipitation, MM = Missing Value Source: NWS Daily Summary

Daily Weather History Graph

Daily Weather History Graph

Search for Another Location

Airport or City:

Trip Planner

Search our weather history database for the weather conditions in past years. The results will help you decide how hot, cold, wet, or windy it might be!

Date:

Astronomy

Sep. 07, 2013 Rise Set
Actual Time 7:11 AM CDT 7:43 PM CDT
Civil Twilight 6:48 AM CDT 8:07 PM CDT
Nautical Twilight 6:20 AM CDT 8:34 PM CDT
Astronomical Twilight 5:52 AM CDT 9:02 PM CDT
Moon 9:10 AM CDT (9/7) 9:01 PM CDT (9/7)
Length of Visible Light 13h 19m
Length of Day
12h 31m
Waxing Crescent, 5% of the Moon is Illuminated
Sep 7
Waxing Crescent
Sep 12
First Quarter
Sep 19
Full
Sep 26
Last Quarter
Oct 4
New

Hourly Weather History & Observations

Time (CDT) Temp. Heat Index Dew Point Humidity Pressure Visibility Wind Dir Wind Speed Gust Speed Precip Events Conditions
12:51 AM 80.1 °F 84.5 °F 73.9 °F 81% 29.95 in 10.0 mi Calm Calm - N/A   Partly Cloudy
1:51 AM 80.1 °F 84.5 °F 73.9 °F 81% 29.95 in 10.0 mi Calm Calm - N/A   Partly Cloudy
2:51 AM 79.0 °F - 73.9 °F 84% 29.94 in 10.0 mi West 3.5 mph - N/A   Mostly Cloudy
3:26 AM 80.6 °F 86.2 °F 75.2 °F 84% 29.94 in 10.0 mi Calm Calm - N/A   Scattered Clouds
3:51 AM 79.0 °F - 75.0 °F 88% 29.94 in 10.0 mi West 3.5 mph - N/A   Scattered Clouds
4:51 AM 80.1 °F 85.1 °F 75.0 °F 85% 29.94 in 10.0 mi NNW 6.9 mph - N/A   Mostly Cloudy
5:10 AM 80.6 °F 86.2 °F 75.2 °F 84% 29.94 in 10.0 mi North 4.6 mph - 0.00 in Rain , Thunderstorm Light Thunderstorms and Rain
5:36 AM 80.6 °F 85.4 °F 73.4 °F 79% 29.95 in 10.0 mi NNE 8.1 mph - 0.00 in   Mostly Cloudy
5:42 AM 80.6 °F 86.2 °F 75.2 °F 84% 29.95 in 10.0 mi North 6.9 mph - 0.00 in Thunderstorm Thunderstorm
5:51 AM 80.1 °F 85.1 °F 75.0 °F 85% 29.95 in 10.0 mi North 6.9 mph - 0.00 in Thunderstorm Thunderstorm
6:10 AM 78.8 °F - 75.2 °F 89% 29.96 in 10.0 mi NNE 9.2 mph - 0.01 in Rain , Thunderstorm Thunderstorms and Rain
6:29 AM 78.8 °F - 75.2 °F 89% 29.96 in 10.0 mi North 8.1 mph - 0.07 in Rain Light Rain
6:51 AM 79.0 °F - 75.9 °F 90% 29.96 in 10.0 mi NNE 4.6 mph - 0.07 in   Mostly Cloudy
6:59 AM 78.8 °F - 75.2 °F 89% 29.96 in 9.0 mi NNE 5.8 mph - 0.00 in Rain , Thunderstorm Light Thunderstorms and Rain
7:51 AM 79.0 °F - 75.0 °F 88% 29.98 in 10.0 mi NNE 5.8 mph - 0.04 in Thunderstorm Thunderstorm
8:45 AM 80.6 °F 86.2 °F 75.2 °F 84% 30.00 in 10.0 mi SE 5.8 mph - 0.00 in   Mostly Cloudy
8:51 AM 80.1 °F 85.1 °F 75.0 °F 85% 30.00 in 10.0 mi Calm Calm - 0.00 in   Scattered Clouds
9:51 AM 82.9 °F 91.8 °F 77.0 °F 82% 29.99 in 10.0 mi North 4.6 mph - N/A   Scattered Clouds
10:51 AM 86.0 °F 96.0 °F 75.9 °F 72% 30.00 in 10.0 mi NE 4.6 mph - N/A   Scattered Clouds
11:23 AM 87.8 °F 97.6 °F 75.2 °F 66% 30.00 in 10.0 mi NE 5.8 mph - N/A   Scattered Clouds
11:51 AM 89.1 °F 100.2 °F 75.9 °F 65% 29.99 in 10.0 mi NE 8.1 mph - N/A   Scattered Clouds
12:51 PM 90.0 °F 99.0 °F 73.9 °F 59% 29.98 in 10.0 mi ENE 9.2 mph - N/A   Scattered Clouds
1:51 PM 93.0 °F 101.9 °F 73.0 °F 52% 29.96 in 10.0 mi ESE 8.1 mph - N/A   Scattered Clouds
2:19 PM 89.6 °F 98.2 °F 73.4 °F 59% 29.94 in 10.0 mi East 10.4 mph - N/A Thunderstorm Thunderstorm
2:43 PM 89.6 °F 96.2 °F 71.6 °F 55% 29.94 in 10.0 mi East 9.2 mph - N/A   Scattered Clouds
2:51 PM 89.1 °F 97.0 °F 73.0 °F 59% 29.94 in 10.0 mi East 8.1 mph - N/A   Mostly Cloudy
3:03 PM 87.8 °F 95.6 °F 73.4 °F 62% 29.94 in 10.0 mi East 9.2 mph - N/A Thunderstorm Thunderstorm
3:42 PM 87.8 °F 95.6 °F 73.4 °F 62% 29.93 in 10.0 mi East 12.7 mph - N/A   Scattered Clouds
3:51 PM 88.0 °F 96.5 °F 73.9 °F 63% 29.92 in 10.0 mi East 12.7 mph - N/A   Mostly Cloudy
4:51 PM 88.0 °F 96.5 °F 73.9 °F 63% 29.90 in 10.0 mi SE 12.7 mph - N/A   Scattered Clouds
5:51 PM 89.1 °F 98.0 °F 73.9 °F 61% 29.90 in 10.0 mi East 15.0 mph 19.6 mph N/A   Scattered Clouds
6:51 PM 87.1 °F 93.6 °F 72.0 °F 61% 29.91 in 10.0 mi SE 12.7 mph - N/A   Partly Cloudy
7:51 PM 84.0 °F 91.2 °F 73.9 °F 72% 29.91 in 10.0 mi SE 8.1 mph - N/A   Scattered Clouds
8:51 PM 82.9 °F 89.4 °F 73.9 °F 74% 29.93 in 10.0 mi ESE 4.6 mph - N/A   Partly Cloudy
9:51 PM 82.9 °F 88.8 °F 73.0 °F 72% 29.93 in 10.0 mi SE 9.2 mph - N/A   Partly Cloudy
10:51 PM 82.0 °F 87.9 °F 73.9 °F 76% 29.92 in 10.0 mi SE 4.6 mph - N/A   Partly Cloudy
11:51 PM 81.0 °F 86.2 °F 73.9 °F 79% 29.92 in 10.0 mi SE 6.9 mph - N/A   Partly Cloudy